Tucson, AZ

9:32 PM MST on August 18, 2019 (GMT -0700)
Tucson International

Weather History for KTUS - May, 2019

Change the Weather History Date:

Sunday, May 19, 2019

  Actual Average Record
Temperature  
Mean Temperature 71 °F 77 °F  
Max Temperature 81 °F 93 °F 104 °F (1925)
Min Temperature 61 °F 61 °F 42 °F (1903)
Degree Days  
Heating Degree Days 0 0  
Month to date heating degree days 0 3  
Since 1 July heating degree days 1408 1509  
Cooling Degree Days 6 12  
Month to date cooling degree days 132 180  
Year to date cooling degree days 312 334  
Growing Degree Days 21 (Base 50)    
Moisture  
Dew Point 30 °F    
Average Humidity 22    
Maximum Humidity 35    
Minimum Humidity 6    
Precipitation  
Precipitation 0.00 in 0.01 in 0.74 in (1917)
Month to date precipitation 1.21 0.14  
Year to date precipitation 5.02 2.98  
Sea Level Pressure  
Sea Level Pressure 29.75 in    
Wind  
Wind Speed 11 mph (South)    
Max Wind Speed 22 mph    
Max Gust Speed 34 mph    
Visibility 10 miles    
Events      
T = Trace of Precipitation, MM = Missing Value Source: NWS Daily Summary

Daily Weather History Graph

Daily Weather History Graph

Search for Another Location

Airport or City:

Astronomy

May. 19, 2019 Rise Set
Actual Time 5:23 AM MST 7:17 PM MST
Civil Twilight 4:56 AM MST 7:44 PM MST
Nautical Twilight 4:23 AM MST 8:17 PM MST
Astronomical Twilight 3:48 AM MST 8:52 PM MST
Moon 8:20 PM MST 6:09 AM MST
Length of Visible Light 14h 47m
Length of Day
13h 53m
Full, 99% of the Moon is Illuminated
May 19
Full
May 26
Last Quarter
Jun 3
New
Jun 9
First Quarter
Jun 17
Full

Hourly Weather History & Observations

Time (MST) Temp. Dew Point Humidity Pressure Visibility Wind Dir Wind Speed Gust Speed Precip Events Conditions
12:53 AM 64.9 °F 34.0 °F 32% 29.80 in 10.0 mi SSE 4.6 mph - N/A   Clear
1:53 AM 64.0 °F 36.0 °F 35% 29.77 in 10.0 mi SSE 5.8 mph - N/A   Clear
2:53 AM 64.9 °F 35.1 °F 33% 29.77 in 10.0 mi South 5.8 mph - N/A   Clear
3:53 AM 62.1 °F 34.0 °F 35% 29.78 in 10.0 mi East 4.6 mph - N/A   Clear
4:53 AM 61.0 °F 33.1 °F 35% 29.78 in 10.0 mi East 3.5 mph - N/A   Clear
5:53 AM 62.1 °F 30.9 °F 31% 29.79 in 10.0 mi East 4.6 mph - N/A   Clear
6:53 AM 64.0 °F 33.1 °F 31% 29.79 in 10.0 mi SE 10.4 mph - N/A   Clear
7:53 AM 66.0 °F 28.0 °F 24% 29.80 in 10.0 mi SE 6.9 mph - N/A   Clear
8:53 AM 69.1 °F 30.9 °F 24% 29.82 in 10.0 mi South 10.4 mph - N/A   Clear
9:53 AM 73.0 °F 28.9 °F 20% 29.79 in 10.0 mi SSE 10.4 mph - N/A   Clear
10:53 AM 73.9 °F 30.0 °F 20% 29.77 in 10.0 mi South 11.5 mph 19.6 mph N/A   Clear
11:53 AM 78.1 °F 26.1 °F 15% 29.75 in 10.0 mi SSW 9.2 mph 21.9 mph N/A   Clear
12:53 PM 80.1 °F 25.0 °F 13% 29.75 in 10.0 mi SW 16.1 mph 24.2 mph N/A   Clear
12:55 PM 80.1 °F 25.0 °F 13% 29.86 in 10.0 mi WSW 15.0 mph 24.2 mph N/A   Clear
1:53 PM 81.0 °F 24.1 °F 12% 29.72 in 10.0 mi SSW 18.4 mph 27.6 mph N/A   Clear
2:53 PM 80.1 °F 25.0 °F 13% 29.70 in 10.0 mi SW 13.8 mph 26.5 mph N/A   Clear
3:53 PM 79.0 °F 26.1 °F 14% 29.68 in 10.0 mi WSW 16.1 mph 25.3 mph N/A   Mostly Cloudy
4:30 PM 78.1 °F 19.9 °F 11% 29.79 in 10.0 mi WSW 17.3 mph 31.1 mph N/A   Mostly Cloudy
4:53 PM 78.1 °F 21.9 °F 12% 29.67 in 10.0 mi SW 16.1 mph 25.3 mph N/A   Clear
5:53 PM 77.0 °F 26.1 °F 15% 29.67 in 10.0 mi SW 13.8 mph 25.3 mph N/A   Clear
6:53 PM 75.9 °F 27.0 °F 16% 29.68 in 10.0 mi SW 13.8 mph - N/A   Clear
7:53 PM 73.0 °F 33.1 °F 23% 29.70 in 10.0 mi North - - N/A   Clear
8:53 PM 71.1 °F 35.1 °F 27% 29.71 in 10.0 mi SW 15.0 mph 23.0 mph N/A   Clear
9:53 PM 69.1 °F 35.1 °F 29% 29.74 in 10.0 mi SW 15.0 mph 23.0 mph N/A   Mostly Cloudy
10:53 PM 68.0 °F 35.1 °F 30% 29.73 in 10.0 mi South 9.2 mph - N/A   Clear
11:53 PM 66.9 °F 37.0 °F 33% 29.71 in 10.0 mi South 8.1 mph - N/A   Overcast